Location: Mentone
(34.5413°N, 85.5351°W)
Time: 11:51:46
(UTC-05:00)

Vanguard 2 Rocket - Visible Passes

Search period start: 24 October 2014 00:00
Search period end: 02 November 2014 23:00
Orbit: 554 x 3335 km, 32.9° (Epoch: 22 October)

Date Brightness Start Highest point End Pass type
(mag) Time Alt. Az. Time Alt. Az. Time Alt. Az.
24 Oct 9.1 03:24:15 21° E 03:24:15 21° E 03:26:39 10° E visible
24 Oct 7.4 05:30:10 29° W 05:33:34 78° S 05:43:47 10° E visible
25 Oct 6.8 04:35:12 78° SSE 04:35:12 78° SSE 04:43:19 10° E visible
26 Oct 8.7 03:40:13 26° E 03:40:13 26° E 03:43:21 10° E visible
26 Oct 7.5 05:46:08 22° W 05:50:13 68° S 06:00:20 10° ESE visible
27 Oct 6.7 04:51:10 69° SW 04:51:43 74° S 04:59:58 10° ESE visible
28 Oct 8.3 03:56:12 32° E 03:56:12 32° E 04:00:02 10° E visible
28 Oct 7.8 06:02:07 16° W 06:06:51 53° SSW 06:16:35 10° ESE visible
29 Oct 6.9 05:07:10 50° WSW 05:08:21 61° S 05:16:27 10° ESE visible
30 Oct 7.9 04:12:13 37° ESE 04:12:13 37° ESE 04:16:38 10° ESE visible
30 Oct 8.3 06:18:08 10° W 06:23:30 37° SSW 06:32:20 10° SE visible
31 Oct 7.3 05:23:12 34° WSW 05:24:58 44° SSW 05:32:36 10° SE visible
01 Nov 7.7 04:28:17 39° SE 04:28:17 39° SE 04:33:03 10° ESE visible
01 Nov 8.7 06:35:24 10° WSW 06:40:14 24° SSW 06:47:19 10° SSE visible
02 Nov 9.4 02:33:23 12° ESE 02:33:23 12° ESE 02:33:49 10° ESE visible
02 Nov 7.9 04:39:18 21° WSW 04:41:38 29° SSW 04:48:11 10° SE visible
